Location: Arrodets-la-Barthe
(43.0306°N, 0.2829°E)
Time: 10:41:56
(UTC+00:00)

Envisat - Visible Passes

Search period start: 08 December 2022 00:00
Search period end: 18 December 2022 00:00
Orbit: 763 x 765 km, 98.2° (Epoch: 07 December)

Date Brightness Start Highest point End Pass type
(mag) Time Alt. Az. Time Alt. Az. Time Alt. Az.
08 Dec 5.5 04:35:47 10° N 04:35:50 10° N 04:35:50 10° N visible
09 Dec 6.2 16:57:11 10° WSW 16:58:43 11° W 17:00:15 10° WNW visible
17 Dec 6.3 16:58:44 10° W 16:59:51 11° W 17:00:57 10° WNW visible
